Showing default

FENGYUN 1C, 25730

Orbit data source: Space-Track

FENGYUN 1C, 25730 is a payload satellite owned by CNMSC (CN) in SSO that was launched on Mon, 10 May 1999 UTC via a CHANG ZHENG 4B launch vehicle from the Taiyaun Space Center, China (TSC). Payload-class satellites include a variety of spacecraft equipped with specific instruments for various scientific and technological missions. These include communications satellites like Starlink; space stations such as the ISS; scientific satellites like the Hubble; Earth observation satellites from companies like Planet Labs, Umbra, and HawkEye 360; GPS; miniature CubeSats for education and research; and military/defense satellites.

Loading next visibility...
Identifier
25730, 1999-025A
Orbit
SSO
Country
Flag of CNCN / PRC
Related business
Manufacturer
SISE
Mission
Non-operational Civil Imaging
Bus & Motor
FY-1, Unknown motor
Mass
958 kg wet, ~958 kg dry
Launch date (UTC)
1999-05-10 (26 years ago)
Launch vehicle
CHANG ZHENG 4B
Launch site
Taiyaun Space Center, China (TSC)
Object type
Payload
Rocket body
Debris
Shape & HBR
Box + 2 Pan, 4.3 m
Radar Cross Section
5.659 m², Medium (>0.1 m² and < 1m²)

Expand to show TLE details & history
Last TLE update: 16 hours ago

TLE from 16 hours ago
0 FENGYUN 1C
1 25730U 99025A   25287.16494820  .00004125  00000-0  17612-2 0  9991
2 25730  98.8909 352.3814 0009661 230.7748 129.2574 14.25558178362884
Epoch: 2025-10-14T03:57Z
TLE epoch observation values (Epoch: 2025-10-14T03:57:31.524Z)
Latitude
-0.00002°
Longitude
-89.95724°
Altitude
813.93 km
Speed
7.444 km/s
True Right ascension
23h 29m 31s
True Declination
0° 00' 00"
Sunlit
Object was in full shadow at epoch
Visualization orbit readout
Latitude
Unknown
Longitude
Unknown
Altitude
Unknown
Speed
Unknown
Apparent Right ascension
Unknown
Apparent Declination
Unknown
Sunlit
N/A
Visualization observer readout
Local Sidereal Time
14:09:35
Azimuth
Unknown
Elevation
Unknown
Doppler factor
Unknown
Orbital elements
Apogee altitude
810.715 km
Perigee altitude
796.838 km
Semi-major axis
7,181.914 km
Eccentricity
0.00097
Inclination
98.8909°
RAAN
352.3814°
Arg. of periapsis
230.7748°
True anomaly
129.34306°
Mean anomaly
129.2574°
Eccentric anomaly
129.30023°
Mean motion
3.56601 °/min
Orbital period
100.95 mins
BSTAR
0.0017612
Loading maneuver chart data...
Computing Atmospheric mass density...

Documentation

Showing up to 5 results
|